{"data":{"norad_id":55179,"epoch":"2026-09-20T04:28:26.619744Z","epoch_age_seconds":49119,"freshness":"FRESH","line1":"1 55179U 23004AR  26263.18641921 -.00000195  00000+0 -53486-3 0  9992","line2":"2 55179  87.9213 346.9808 0002017  97.6044 262.5317 13.17648555180096","mean_motion":13.17648555,"eccentricity":0.0002017,"inclination_deg":87.9213,"raan_deg":346.9808,"arg_perigee_deg":97.6044,"mean_anomaly_deg":262.5317,"bstar":-0.00053486,"rev_number":18009,"period_min":109.2855901929,"perigee_km":1192.1877221135,"apogee_km":1195.242207196,"semimajor_km":7571.8519646547,"source":"CELESTRAK","updated_at":"2026-09-20T09:00:44.758527Z"}}